This is the latest recevied weather packets stored in our database for station/object KB3KAV. If no packets are shown the sender has not sent any weather packets the latest 10 day(s).
| Time | Temp. | Humidity | Pressure | Rain* | Wind** | Luminosity | Snow |
|---|---|---|---|---|---|---|---|
| 1787768069 | 25.56° C | 57% | 1047.2 hPa | 0 mm | - | 520 W/m² | - |
| 1787767464 | 25.56° C | 59% | 1047.3 hPa | 0 mm | - | 673 W/m² | - |
| 1787766861 | 25.56° C | 58% | 1047.3 hPa | 0 mm | - | 681 W/m² | - |
| 1787766261 | 25.56° C | 57% | 1047.3 hPa | 0 mm | - | 654 W/m² | - |
| 1787765659 | 25.56° C | 60% | 1047.3 hPa | 0 mm | - | 712 W/m² | - |
| 1787765058 | 26.11° C | 59% | 1047.6 hPa | 0 mm | - | 701 W/m² | - |
| 1787764455 | 25° C | 60% | 1047.9 hPa | 0 mm | - | 723 W/m² | - |
| 1787763852 | 24.44° C | 61% | 1048.1 hPa | 0 mm | - | 632 W/m² | - |
| 1787763248 | 25° C | 62% | 1047.9 hPa | 0 mm | - | 684 W/m² | - |
| 1787762648 | 23.89° C | 62% | 1048.2 hPa | 0 mm | - | 668 W/m² | - |
| 1787762045 | 23.89° C | 60% | 1048.4 hPa | 0 mm | - | 659 W/m² | - |
| 1787761440 | 23.33° C | 61% | 1048.4 hPa | 0 mm | - | 586 W/m² | - |
| 1787760840 | 23.89° C | 60% | 1048.7 hPa | 0 mm | - | 634 W/m² | - |
| 1787760239 | 23.33° C | 63% | 1048.8 hPa | 0 mm | - | 605 W/m² | - |
| 1787759637 | 22.78° C | 64% | 1048.7 hPa | 0 mm | - | 608 W/m² | - |
| 1787759033 | 22.78° C | 65% | 1048.7 hPa | 0 mm | - | 615 W/m² | - |
| 1787758429 | 21.67° C | 69% | 1048.9 hPa | 0 mm | - | 548 W/m² | - |
| 1787757823 | 21.67° C | 69% | 1049.2 hPa | 0 mm | - | 570 W/m² | - |
| 1787757219 | 21.67° C | 73% | 1049 hPa | 0 mm | - | 546 W/m² | - |
| 1787756620 | 21.67° C | 72% | 1049 hPa | 0 mm | - | 447 W/m² | - |
| 1787756018 | 21.11° C | 72% | 1049.2 hPa | 0 mm | - | 544 W/m² | - |
| 1787755414 | 21.11° C | 71% | 1049.3 hPa | 0 mm | - | 554 W/m² | - |
| 1787754813 | 20.56° C | 72% | 1049.2 hPa | 0 mm | - | 537 W/m² | - |
| 1787754211 | 20.56° C | 78% | 1049.4 hPa | 0 mm | - | 488 W/m² | - |
| 1787753612 | 20.56° C | 76% | 1049.5 hPa | 0 mm | - | 510 W/m² | - |
* Rain latest hour (hover to see other rain measurements)
** Current wind speed in m/s (hover to see current wind gust speed)